Location: The Rolnick Observatory
(41.1711°N, 73.3275°W)
Time: 08:57:33
(UTC-04:00)

Hubble Space Telescope - Visible Passes

Search period start: 21 April 2019 00:00
Search period end: 01 May 2019 00:00
Orbit: 537 x 540 km, 28.5° (Epoch: 20 April)

Date Brightness Start Highest point End Pass type
(mag) Time Alt. Az. Time Alt. Az. Time Alt. Az.
24 Apr 3.2 05:33:08 10° S 05:33:47 10° SSE 05:34:27 10° SSE visible
25 Apr 3.1 05:21:43 10° S 05:23:08 11° S 05:24:34 10° SSE visible
26 Apr 3.0 05:10:42 10° SSW 05:12:30 13° S 05:14:17 10° SE visible
27 Apr 2.9 04:59:50 10° SSW 05:01:52 13° S 05:03:52 10° SE visible
28 Apr 2.8 04:49:42 12° SSW 04:51:13 14° S 04:53:22 10° SE visible
29 Apr 2.7 04:39:42 13° SSW 04:40:35 14° S 04:42:47 10° SSE visible
30 Apr 2.7 04:29:45 14° S 04:29:57 14° S 04:32:07 10° SSE visible
